Location: R�serve Fauniques des Laurentides
(47.3100°N, 71.1900°W)
Time: 10:14:52
(UTC-04:00)

Cosmos 1674 - Visible Passes

Search period start: 05 September 2015 00:00
Search period end: 15 September 2015 00:00
Orbit: 506 x 529 km, 82.5° (Epoch: 04 September)

Date Brightness Start Highest point End Pass type
(mag) Time Alt. Az. Time Alt. Az. Time Alt. Az.
05 Sep 5.4 22:08:23 10° NNE 22:08:45 11° NNE 22:08:45 11° NNE visible
05 Sep 5.8 23:43:10 10° NNW 23:43:48 14° NNW 23:43:48 14° NNW visible
06 Sep 5.4 21:54:21 10° NE 21:54:28 10° NE 21:54:28 10° NE visible
06 Sep 5.7 23:28:46 10° NNW 23:29:31 15° NNW 23:29:31 15° NNW visible
07 Sep 5.6 23:14:23 10° NNW 23:15:14 16° NNW 23:15:14 16° NNW visible
08 Sep 5.5 23:00:01 10° NNW 23:00:58 17° NNW 23:00:58 17° NNW visible
09 Sep 5.4 22:45:38 10° N 22:46:43 18° N 22:46:43 18° N visible
10 Sep 5.2 22:31:17 10° N 22:32:27 19° N 22:32:27 19° N visible
11 Sep 5.1 22:16:57 10° N 22:18:12 20° N 22:18:12 20° N visible
12 Sep 4.9 22:02:36 10° N 22:03:58 20° N 22:03:58 20° N visible
13 Sep 4.8 21:48:18 10° N 21:49:43 20° NNE 21:49:43 20° NNE visible
14 Sep 4.7 21:33:59 10° N 21:35:30 20° NNE 21:35:30 20° NNE visible
14 Sep 6.1 23:10:28 10° NW 23:10:33 10° NW 23:10:33 10° NW visible
